Location: Poughquag
(41.6090°N, 73.6820°W)
Time: 11:11:05
(UTC-05:00)

N. Korean satellite - Pass Details

Date: 26 January 2020
Orbit: 456 x 505 km, 97.2° (Epoch: 24 February)

Event Time Altitude Azimuth Distance (km) Brightness Sun altitude
Rises 06:34:47 0° 356° (N) 2,542 10.0 -7.4°
Reaches altitude 10° 06:37:11 10° 340° (NNW) 1,667 8.9 -7.0°
Maximum altitude 06:39:53 20° 291° (WNW) 1,160 7.9 -6.5°
Drops below altitude 10° 06:42:37 10° 242° (WSW) 1,679 8.9 -6.0°
Sets 06:45:03 0° 225° (SW) 2,564 10.0 -5.6°
